Home   Weather   42°59'N, 96°02'W   Past weeks
Flag for USA

Past Weather in 42°59'N, 96°02'W, USA — Yesterday and Last 2 Weeks

Now
42 °F

Passing clouds.


Feels Like: 42 °F
Forecast: 75 / 46 °F
Wind: No wind

Location: Foss Field

Current Time: May 26, 2019 at 6:27:08 am

Latest Report: May 26, 2019 at 5:56 am


Visibility: 10 mi

Pressure: 30.08 "Hg

Humidity: 100%

Dew Point: 42 °F

Location of 42°59'N, 96°02'WLocation

Past Weather in 42°59'N, 96°02'W — Graph

°F

42°59'N, 96°02'W Temperature Yesterday

Maximum temperature yesterday: 68 °F (at 4:56 pm)
Minimum temperature yesterday: 52 °F (at 5:56 am)
Average temperature yesterday: 60 °F

High & Low Weather Summary for the Past Weeks

 TemperatureHumidityPressure
High82 °F (May 16, 11:56 am)100% (May 26, 3:56 am)30.22 "Hg (May 26, 3:56 am)
Low34 °F (May 20, 5:56 am)37% (May 16, 11:56 am)29.34 "Hg (May 22, 6:23 am)
Average56 °F77%29.81 "Hg
* Reported May 11 4:56 am — May 26 4:56 am, 42°59'N, 96°02'W. Weather by CustomWeather, © 2019

Note: Actual official high and low records may vary slightly from our data, if they occured in-between our weather recording intervals... More about our weather records

Advertising

42°59'N, 96°02'W Weather History for the Previous 24 Hours

Scroll right to see more
 ConditionsComfort  
Time TempWeatherWind HumidityBarometerVisibility
4:56 am
Sun, May 26
46 °FClear.No wind93%30.06 "Hg10 mi
4:38 am44 °FFog.3 mph100%30.04 "Hg3 mi
4:03 am46 °FFog.3 mph96%30.04 "Hg5 mi
3:56 am44 °FFog.5 mph100%30.05 "Hg2 mi
3:33 am44 °FFog.3 mph96%30.05 "Hg1 mi
2:56 am49 °FClear.No wind93%30.05 "Hg10 mi
1:56 am48 °FClear.No wind89%30.05 "Hg10 mi
12:56 am52 °FClear.No wind83%30.03 "Hg10 mi
11:56 pm
Sat, May 25
52 °FPassing clouds.No wind86%30.04 "Hg10 mi
10:56 pm54 °FPassing clouds.3 mph83%30.04 "Hg10 mi
9:56 pm55 °FPassing clouds.No wind80%30.02 "Hg10 mi
8:56 pm60 °FPassing clouds.No wind67%30.01 "Hg10 mi
7:56 pm64 °FPassing clouds.8 mph58%29.96 "Hg10 mi
6:56 pm67 °FSunny.8 mph51%29.98 "Hg10 mi
5:56 pm68 °FSunny.12 mph49%29.99 "Hg10 mi
4:56 pm68 °FPassing clouds.13 mph49%29.99 "Hg10 mi
3:56 pm67 °FPassing clouds.12 mph51%29.98 "Hg10 mi
2:56 pm67 °FPassing clouds.13 mph53%29.98 "Hg10 mi
1:56 pm66 °FScattered clouds.15 mph54%29.97 "Hg10 mi
12:56 pm64 °FPartly sunny.14 mph58%29.98 "Hg10 mi
11:56 am63 °FPartly sunny.13 mph60%29.96 "Hg10 mi
10:56 am62 °FScattered clouds.14 mph60%29.94 "Hg10 mi
9:56 am61 °FPassing clouds.13 mph62%29.93 "Hg10 mi
8:56 am58 °FPassing clouds.10 mph70%29.90 "Hg10 mi
7:56 am56 °FPassing clouds.16 mph72%29.88 "Hg10 mi
6:56 am53 °FPassing clouds.10 mph77%29.87 "Hg10 mi
Weather by CustomWeather, © 2019

See weather overview